This is the latest recevied weather packets stored in our database for station/object KD5FHA. If no packets are shown the sender has not sent any weather packets the latest 10 day(s).
| Time | Temp. | Humidity | Pressure | Rain* | Wind** | Luminosity | Snow |
|---|---|---|---|---|---|---|---|
| 1777997178 | 26.11° C | 74% | 1006.2 hPa | 0 mm | - | 664 W/m² | - |
| 1777996875 | 25.56° C | 75% | 1006.4 hPa | 0 mm | - | 537 W/m² | - |
| 1777996571 | 25.56° C | 76% | 1006.1 hPa | 0 mm | - | 390 W/m² | - |
| 1777996268 | 25.56° C | 76% | 1006.2 hPa | 0 mm | - | 401 W/m² | - |
| 1777995964 | 25.56° C | 76% | 1006 hPa | 0 mm | - | 470 W/m² | - |
| 1777995660 | 25.56° C | 77% | 1006.3 hPa | 0 mm | - | 423 W/m² | - |
| 1777995358 | 25° C | 77% | 1006.3 hPa | 0 mm | - | 436 W/m² | - |
| 1777995055 | 25° C | 78% | 1006.4 hPa | 0 mm | - | 318 W/m² | - |
| 1777994751 | 25° C | 78% | 1006.4 hPa | 0 mm | - | 249 W/m² | - |
| 1777994448 | 25° C | 78% | 1006.4 hPa | 0 mm | - | 293 W/m² | - |
| 1777994148 | 25° C | 78% | 1006.2 hPa | 0 mm | - | 297 W/m² | - |
| 1777993846 | 25° C | 78% | 1006.2 hPa | 0 mm | - | 285 W/m² | - |
| 1777993542 | 25° C | 78% | 1006.3 hPa | 0 mm | - | 390 W/m² | - |
| 1777993238 | 24.44° C | 79% | 1006.1 hPa | 0 mm | - | 315 W/m² | - |
| 1777992934 | 24.44° C | 80% | 1006.4 hPa | 0 mm | - | 295 W/m² | - |
| 1777992633 | 23.89° C | 80% | 1006.5 hPa | 0 mm | - | 247 W/m² | - |
| 1777992330 | 23.89° C | 80% | 1006.5 hPa | 0 mm | - | 298 W/m² | - |
| 1777992027 | 23.89° C | 80% | 1006.4 hPa | 0 mm | - | 243 W/m² | - |
| 1777991725 | 23.89° C | 81% | 1006.4 hPa | 0 mm | - | 267 W/m² | - |
| 1777991422 | 23.89° C | 81% | 1006.3 hPa | 0 mm | - | 214 W/m² | - |
| 1777991119 | 23.89° C | 81% | 1006.4 hPa | 0 mm | - | 193 W/m² | - |
| 1777990816 | 23.89° C | 81% | 1006.4 hPa | 0 mm | - | 222 W/m² | - |
| 1777990514 | 23.89° C | 81% | 1006.1 hPa | 0 mm | - | 206 W/m² | - |
| 1777989907 | 23.33° C | 82% | 1005.9 hPa | 0 mm | - | 210 W/m² | - |
| 1777989604 | 23.33° C | 83% | 1006.2 hPa | 0 mm | - | 202 W/m² | - |
* Rain latest hour (hover to see other rain measurements)
** Current wind speed in m/s (hover to see current wind gust speed)